Location: Eaton
(41.3139°N, 82.0207°W)
Time: 13:11:26
(UTC+00:00)

USA 307 - Pass Details

Date: 17 June 2021
Orbit: 565 x 576 km, 54.0° (Epoch: 17 July)

Event Time Altitude Azimuth Distance (km) Brightness Sun altitude
Exits shadow 06:58:00 23° 120° (ESE) 1,226 4.5 -22.1°
Drops below altitude 10° 07:01:01 10° 75° (ENE) 1,865 6.0 -21.9°
Sets 07:03:36 0° 61° (ENE) 2,764 7.2 -21.7°
